Terug naar catalogus

SL-8 R/B

ActiefPO
NORAD 26819·ROCKET BODY·🇷🇺 Russia

Gelanceerd Jun 8, 2001 vanaf Plesetsk Cosmodrome

Loading…

Volgende Passages (komende 24 uur)

TLE

VersSource: Space-Track

Epoch: Sep 14, 2026, 22:20 UTC

1 26819U 01023B   26257.93089343  .00000101  00000-0  88072-4 0  9994
2 26819  82.9246 133.4877 0024219  89.0411 298.0471 13.75950661268676

Volg SL-8 R/B in realtime met AllMySat

Download on the App Store